Lexington Weather

Lexington, Massachusetts, USA

47°F
10/22/2019 2:29am 
  • Lexington Conditions: Mostly cloudy
  • Temperature: 46.6°F / 8.1°CWarmer 1.3°F than last hour.
  • Dew Point: 45.0°FIncreased 1.8°Fsince last hour.
  • Relative Humidity: 94%Increased 2.0% since last hour.
  • Wind: Calm, 10-min avg: Calm, gust: None
  • Barometer: 30.12 in Steady
  • Visibility: 9 miles
  • Rain Today: 0.00 in
  •   

Regional Weather Roundup
for Boston, MA

        
000
ASUS41 KBOX 220400
RWRBOX

REGIONAL WEATHER ROUNDUP
NATIONAL WEATHER SERVICE BOSTON/NORTON MA
1200 AM EDT TUE OCT 22 2019

NOTE:  "FAIR" INDICATES FEW OR NO CLOUDS BELOW 12,000 FEET WITH NO 
SIGNIFICANT WEATHER AND/OR OBSTRUCTIONS TO VISIBILITY.

MAZALL-220500-
EASTERN MASSACHUSETTS
  
CITY           SKY/WX    TMP DP  RH WIND       PRES   REMARKS
BOSTON         FAIR      51  46  83 N6        30.16F                  
BEVERLY        FOG       44  41  89 CALM      30.16S VSB 1            
LAWRENCE       FAIR      45  43  93 CALM      30.19F                  
BEDFORD        FAIR      43  38  82 CALM      30.16S                  
BLUE HILL      NOT AVBL                                               
NORWOOD        MOCLDY    41  36  82 CALM      30.16S HAZE             
MARSHFIELD     NOT AVBL                                               
PLYMOUTH       FAIR      45  44  97 CALM      30.15S                  
TAUNTON        FAIR      41  39  93 CALM      30.14F                  
NEW BEDFORD    FAIR      46  42  86 CALM      30.13F                  
$$

MAZALL-220500-
CAPE COD AND THE ISLANDS
  
CITY           SKY/WX    TMP DP  RH WIND       PRES   REMARKS
FALMOUTH       CLEAR     52  48  87 NE9       30.14S                  
HYANNIS        NOT AVBL                                               
CHATHAM        NOT AVBL                                               
PROVINCETOWN   FAIR      53  50  89 NE8         N/A                   
NANTUCKET      CLOUDY    54  52  93 NE14G21   30.13R                  
MARTHAS VNYRD  FAIR      51  49  92 N7        30.12F                  
$$
 
MAZALL-220500-
CENTRAL AND WESTERN MASSACHUSETTS
  
CITY           SKY/WX    TMP DP  RH WIND       PRES   REMARKS
WORCESTER      FAIR      47  45  93 NE7       30.14F                  
FITCHBURG      FAIR      43  40  89 CALM      30.18F                  
ORANGE         FAIR      42  39  89 CALM      30.16F                  
SPRINGFIELD    FAIR      44  44  98 CALM      30.14R                  
WESTFIELD      FAIR      43  41  93 CALM      30.16R                  
NORTH ADAMS    FAIR      47  43  86 VRB5      30.13S                  
PITTSFIELD     FAIR      46  42  86 CALM      30.13R                  
$$
 
RIZALL-220500-
RHODE ISLAND
  
CITY           SKY/WX    TMP DP  RH WIND       PRES   REMARKS
PROVIDENCE     FAIR      49  47  93 N5        30.15F                  
NEWPORT        FAIR      50  46  86 N5        30.12F                  
BLOCK ISLAND   FAIR      54  50  86 NE15      30.12F                  
SMITHFIELD     FAIR     N/A N/A N/A NE5       30.14F                  
WESTERLY       FAIR      51  47  86 NE6       30.13F                  
$$
 
CTZALL-220500-
CONNECTICUT
  
CITY           SKY/WX    TMP DP  RH WIND       PRES   REMARKS
BRADLEY INTL   MOCLDY    46  43  89 W6        30.16R                  
HARTFORD       FAIR      52  45  77 W3        30.16R                  
BRIDGEPORT     FAIR      55  44  66 NE7       30.15R                  
DANBURY        FAIR      43  42  97 CALM      30.15S                  
GROTON         NOT AVBL                                               
NEW HAVEN      FAIR      50  43  77 CALM      30.15R                  
CHESTER        FAIR      48  41  76 N3        30.14R                  
MERIDEN        FAIR      47  45  93 CALM      30.15R                  
WILLIMANTIC    FAIR      44  44 100 CALM      30.16S                  
OXFORD         FAIR      48  46  93 E5        30.15R                  
$$

MEZ002-015-021-024-NHZ003-005-008-011-012-014-VTZ005-008-220500-
NORTHERN NEW ENGLAND
  
CITY           SKY/WX    TMP DP  RH WIND       PRES   REMARKS
PORTLAND ME    FAIR      44  41  89 W3        30.18F                  
BANGOR ME      FAIR      40  39  97 CALM      30.21R                  
CONCORD NH     FOG       40  39  97 CALM      30.18  VSB 3/4          
MANCHESTER NH  FAIR      47  43  86 CALM      30.16S                  
NASHUA NH      FAIR      43  43 100 NW3       30.18S                  
PORTSMOUTH NH  PTCLDY    44  43  98 NW3       30.16F                  
JAFFREY NH     FAIR      40  38  93 CALM      30.16F                  
KEENE NH       FOG       41  41 100 CALM      30.16F VSB 3/4          
BURLINGTON VT  FAIR      43  41  93 SE3       30.12F                  
MT. WASHINGTON NOT AVBL                                               
$$

NYZ052-076-220500-
EASTERN NEW YORK
  
CITY           SKY/WX    TMP DP  RH WIND       PRES   REMARKS
ALBANY         MOCLDY    44  41  89 CALM      30.13S                  
NEW YORK CITY  MOCLDY    59  47  64 E8        30.12F                  
$$
 
ANZALL-220500-
MARINE OBSERVATIONS
  
STATION/POSITION TIME  TEMP    WIND        PRES    VSBY  WAVE
                       AIR SEA DIR/SP/G                  HT/PER
                 (UTC) (F)     (DEG/KT/KT) (MB)    (MI)  (FT/S)
BOSTON BUOY      0250   55 57   40/  6/  8 1021.0          3/ 5
BUZZARDS BAY     0300   54      40/ 17/ 19 1020.6F
NANTUCKET SOUND  0320      56              1020.2
MASS BAY-STELLWA 0304      56                N/A
ISLE OF SHOALS   0300   54      40/  6/  7 1021.6F
S OF BLOCK IS    0330      60                N/A           7/ 9
$$

......................KEY.........................
  SKY/WX - SKY CONDITION/PRESENT WEATHER
  TMP    - TEMPERATURE IN FAHRENHEIT
  DWPT   - DEWPOINT IN FAHRENHEIT
  RH     - RELATIVE HUMIDITY IN PERCENT
  WIND   - DIRECTION AND SPEED IN MPH
  PRES   - MEAN SEA LEVEL PRESSURE IN INCHES OF HG
  WCI    - WIND CHILL INDEX
  VSB    - VISIBILITY IN MILES
  HX     - HEAT INDEX
  TC     - TEMPERATURE IN CELSIUS
  VRB    - VARIABLE WIND DIRECTION
  N/A    - NOT AVAILABLE
  
      

Other recent Regional Weather Roundups

Tue Oct 22, 2:10am

Tue Oct 22, 2:00am

Tue Oct 22, 1:10am

Tue Oct 22, 1:00am

Tue Oct 22, 12:10am

Mon Oct 21, 11:10pm

Mon Oct 21, 11:00pm

Mon Oct 21, 10:10pm

Mon Oct 21, 10:01pm

Mon Oct 21, 9:10pm

Mon Oct 21, 9:00pm

Mon Oct 21, 8:10pm

Mon Oct 21, 8:00pm

Mon Oct 21, 7:10pm

Mon Oct 21, 7:01pm

Mon Oct 21, 6:10pm

Mon Oct 21, 6:01pm

Mon Oct 21, 5:10pm

Mon Oct 21, 5:01pm

Mon Oct 21, 4:10pm

Mon Oct 21, 4:00pm

Mon Oct 21, 3:10pm

Mon Oct 21, 3:01pm

Mon Oct 21, 2:10pm

Mon Oct 21, 2:00pm

Mon Oct 21, 1:10pm

Mon Oct 21, 1:01pm

Mon Oct 21, 12:10pm

Mon Oct 21, 12:00pm

Mon Oct 21, 11:10am

Mon Oct 21, 11:00am

Mon Oct 21, 10:10am

Mon Oct 21, 10:00am

Mon Oct 21, 9:10am

Mon Oct 21, 9:00am

Mon Oct 21, 7:10am

Mon Oct 21, 7:00am

Mon Oct 21, 6:10am

Mon Oct 21, 6:00am

Mon Oct 21, 5:10am

Mon Oct 21, 5:00am

Mon Oct 21, 4:10am

Mon Oct 21, 4:00am

Mon Oct 21, 3:10am

Mon Oct 21, 3:00am

Mon Oct 21, 2:10am

Mon Oct 21, 2:01am

Mon Oct 21, 1:10am

Mon Oct 21, 1:00am

Mon Oct 21, 12:10am

Mon Oct 21, 12:00am

Sun Oct 20, 11:10pm

Sun Oct 20, 11:00pm

Sun Oct 20, 10:10pm

Sun Oct 20, 10:00pm

Sun Oct 20, 9:10pm

Sun Oct 20, 9:01pm

Sun Oct 20, 8:10pm

Sun Oct 20, 8:00pm

Sun Oct 20, 7:10pm

Sun Oct 20, 7:01pm

Sun Oct 20, 6:10pm

Sun Oct 20, 6:00pm

Sun Oct 20, 5:10pm

Sun Oct 20, 5:00pm

Sun Oct 20, 4:10pm

Sun Oct 20, 4:00pm

Sun Oct 20, 3:10pm

Sun Oct 20, 3:00pm

Sun Oct 20, 2:10pm

Sun Oct 20, 2:01pm

Sun Oct 20, 1:10pm

Sun Oct 20, 1:01pm

Sun Oct 20, 12:10pm

Sun Oct 20, 12:00pm

Sun Oct 20, 11:10am

Sun Oct 20, 11:00am

Sun Oct 20, 10:10am

Sun Oct 20, 10:00am

Sun Oct 20, 9:10am

Sun Oct 20, 9:00am

Sun Oct 20, 8:10am

Sun Oct 20, 8:00am

Sun Oct 20, 7:10am

Sun Oct 20, 7:00am

Sun Oct 20, 6:10am

Sun Oct 20, 6:00am

Sun Oct 20, 5:10am

Sun Oct 20, 5:00am

Sun Oct 20, 4:10am

Sun Oct 20, 4:00am

Sun Oct 20, 3:10am

Sun Oct 20, 3:00am

Sun Oct 20, 2:10am

Sun Oct 20, 2:00am

Sun Oct 20, 1:10am

Sun Oct 20, 1:00am

Sun Oct 20, 12:10am

Sun Oct 20, 12:00am

Sat Oct 19, 11:10pm

Sat Oct 19, 11:00pm

Sat Oct 19, 10:10pm

Sat Oct 19, 10:00pm

Sat Oct 19, 9:10pm

Sat Oct 19, 9:00pm

Sat Oct 19, 8:10pm

Sat Oct 19, 8:00pm

Sat Oct 19, 7:10pm

Sat Oct 19, 7:00pm

Sat Oct 19, 6:10pm

Sat Oct 19, 6:00pm

Sat Oct 19, 5:10pm

Sat Oct 19, 5:00pm

Sat Oct 19, 4:10pm

Sat Oct 19, 4:00pm

Sat Oct 19, 3:10pm

Sat Oct 19, 3:01pm

Sat Oct 19, 2:10pm

Sat Oct 19, 2:00pm

Sat Oct 19, 1:10pm

Sat Oct 19, 1:01pm

Sat Oct 19, 12:10pm

Sat Oct 19, 12:00pm

Sat Oct 19, 11:10am

Sat Oct 19, 11:01am

Sat Oct 19, 10:10am

Sat Oct 19, 10:00am

Sat Oct 19, 9:10am

Sat Oct 19, 9:00am

Sat Oct 19, 8:10am

Sat Oct 19, 8:00am

Sat Oct 19, 7:10am

Sat Oct 19, 7:00am

Sat Oct 19, 6:10am

Sat Oct 19, 6:00am

Sat Oct 19, 5:10am

Sat Oct 19, 5:00am

Sat Oct 19, 4:10am

Sat Oct 19, 4:00am

Sat Oct 19, 3:10am

Sat Oct 19, 3:00am

Meta data:

ID: 07f4a19d-ca4c-4d2a-a406-0a619fb9670d
Link: https://api.weather.gov/products/07f4a19d-ca4c-4d2a-a406-0a619fb9670d